DL7AND-2 Weather Reports


time (UTC)temp
C
wind
direction
speed
KPH
gust
KPH
rain 1hr
cm
rain 24hr
cm
rain mn
cm
humidity
%
barometer
mb
20260507052232 7 67 4.8 8.0 0.00 1.09 0.00 80 1011.0
20260507051229 7 45 4.8 4.8 0.00 1.09 0.00 80 1011.1
20260507050212 7 45 4.8 4.8 0.00 1.12 0.00 80 1010.7
20260507045148 7 45 3.2 4.8 0.00 1.12 0.00 80 1010.8
20260507044212 7 45 6.4 9.7 0.00 1.12 0.00 81 1010.4
20260507043148 7 45 4.8 4.8 0.00 1.17 0.00 81 1010.4
20260507042212 7 45 1.6 4.8 0.00 1.19 0.00 81 1010.5
20260507041148 7 45 4.8 9.7 0.00 1.22 0.00 81 1010.3
20260507040300 7 67 0.0 1.6 0.00 1.24 0.00 81 1010.1
20260507035148 7 67 4.8 8.0 0.00 1.27 0.00 81 1010.0
20260507034212 7 90 3.2 4.8 0.00 1.27 0.00 81 1009.9
20260507033148 7 90 3.2 6.4 0.00 1.30 0.00 81 1009.9
20260507032212 7 90 1.6 3.2 0.00 1.35 0.00 81 1009.9
20260507031228 7 90 4.8 11.3 0.00 1.40 0.00 81 1009.8
20260507030212 7 90 4.8 9.7 0.00 1.45 0.00 81 1009.6
20260507025148 7 90 4.8 4.8 0.00 1.50 0.00 81 1009.6
20260507024212 7 45 1.6 3.2 0.00 1.55 0.00 81 1009.7
20260507023148 7 45 3.2 4.8 0.00 1.63 0.00 80 1009.7
20260507021148 7 45 4.8 4.8 0.00 1.78 0.00 80 1009.5
20260507020232 7 45 4.8 8.0 0.00 1.85 0.00 80 1009.2
20260507015148 7 45 12.9 14.5 0.00 1.91 0.00 81 1009.4
20260507014233 7 45 6.4 9.7 0.00 1.93 0.00 80 1009.5
20260507013229 7 45 3.2 6.4 0.00 2.01 0.00 81 1009.4
20260507012232 7 45 8.0 9.7 0.00 2.03 0.00 81 1009.4
20260507011209 7 45 0.0 1.6 0.00 2.06 0.00 81 1009.3
20260507010212 7 45 3.2 4.8 0.00 2.08 0.00 81 1008.9
20260507005228 7 45 1.6 4.8 0.00 2.11 0.00 81 1009.1
20260507004213 7 45 1.6 4.8 0.00 2.11 0.00 81 1008.9
20260507003148 7 45 4.8 8.0 0.00 2.16 0.00 80 1008.9
20260507001148 7 45 8.0 9.7 0.00 2.18 0.00 81 1008.8
20260507000212 7 45 4.8 8.0 0.00 2.18 0.00 81 1008.9
20260506235148 7 45 4.8 8.0 0.00 2.18 0.00 81 1008.7
20260506234212 8 45 4.8 9.7 0.00 2.18 0.00 81 1008.9
20260506233208 8 45 4.8 6.4 0.00 2.21 0.00 81 1008.7
20260506232300 8 67 4.8 9.7 0.00 2.21 0.00 81 1008.9
20260506231148 8 45 8.0 11.3 0.00 2.21 0.00 82 1008.7
20260506230212 9 45 4.8 6.4 0.00 2.21 0.00 82 1008.6
20260506225148 9 45 9.7 14.5 0.00 2.21 0.00 82 1008.3
20260506224233 9 45 4.8 6.4 0.00 2.21 0.00 82 1008.0
20260506223148 10 45 14.5 17.7 0.00 2.21 0.00 83 1008.0
20260506222232 10 45 3.2 8.0 0.00 2.21 0.00 83 1008.0
20260506221249 10 45 4.8 9.7 0.00 2.21 0.00 83 1008.0
20260506220313 10 45 6.4 9.7 0.00 2.21 2.21 84 1008.1
20260506215148 10 45 4.8 8.0 0.00 2.21 2.21 84 1008.1
20260506214213 10 45 4.8 8.0 0.00 2.21 2.21 85 1008.0
20260506213149 10 45 1.6 3.2 0.00 2.21 2.21 84 1007.9
20260506212300 10 45 3.2 4.8 0.00 2.21 2.21 84 1007.6
20260506211148 10 45 6.4 9.7 0.00 2.21 2.21 85 1007.5
20260506210232 10 45 1.6 3.2 0.00 2.21 2.21 86 1007.6
20260506205148 10 45 8.0 11.3 0.00 2.21 2.21 87 1007.4
20260506204232 10 45 4.8 6.4 0.00 2.21 2.21 88 1007.4
20260506203148 10 45 3.2 4.8 0.00 2.21 2.21 87 1007.5
20260506202253 10 45 3.2 4.8 0.00 2.21 2.21 87 1007.6
20260506201229 10 45 1.6 4.8 0.00 2.21 2.21 87 1007.5
20260506200313 10 45 1.6 4.8 0.00 2.21 2.21 86 1007.3
20260506195209 10 0.0 1.6 0.00 2.21 2.21 86 1007.2
20260506194253 10 45 4.8 8.0 0.00 2.21 2.21 86 1007.1
20260506192212 10 45 3.2 4.8 0.00 2.21 2.21 85 1007.1
20260506191209 10 45 4.8 8.0 0.00 2.21 2.21 85 1007.2
20260506190253 10 45 0.0 1.6 0.00 2.21 2.21 84 1006.8
20260506185148 10 45 3.2 4.8 0.00 2.21 2.21 84 1006.7
20260506184212 10 45 4.8 8.0 0.00 2.21 2.21 83 1006.4
20260506183148 11 45 1.6 4.8 0.00 2.21 2.21 83 1006.5
20260506182232 11 45 3.2 4.8 0.00 2.21 2.21 84 1006.4
20260506181249 11 45 6.4 9.7 0.00 2.21 2.21 84 1006.6
20260506180212 11 45 3.2 4.8 0.00 2.21 2.21 84 1006.6
20260506175208 11 45 1.6 4.8 0.00 2.21 2.21 84 1006.3
20260506174253 11 45 8.0 11.3 0.00 2.21 2.21 84 1006.2
20260506173148 11 45 1.6 3.2 0.00 2.21 2.21 84 1006.0
20260506172233 12 45 6.4 9.7 0.00 2.21 2.21 84 1006.3
20260506171148 12 45 4.8 6.4 0.00 2.21 2.21 81 1006.1
20260506170233 12 45 0.0 4.8 0.00 2.21 2.21 81 1006.0
20260506165208 12 45 1.6 3.2 0.00 2.21 2.21 80 1006.1
20260506164212 12 45 0.0 3.2 0.00 2.21 2.21 80 1005.9
20260506163209 12 45 6.4 9.7 0.00 2.21 2.21 80 1005.8
20260506162212 13 45 3.2 4.8 0.00 2.21 2.21 80 1005.9
20260506161148 13 45 3.2 4.8 0.00 2.21 2.21 80 1006.1
20260506160300 13 45 4.8 6.4 0.00 2.21 2.21 81 1006.1
20260506155249 13 45 3.2 4.8 0.00 2.21 2.21 80 1006.2
20260506154233 13 45 3.2 4.8 0.00 2.21 2.21 81 1006.1
20260506153209 13 45 3.2 4.8 0.03 2.21 2.21 81 1006.1
20260506152333 13 45 3.2 4.8 0.03 2.21 2.21 82 1006.2
20260506151309 12 45 3.2 4.8 0.03 2.21 2.21 81 1006.2
20260506150212 13 45 3.2 4.8 0.03 2.21 2.21 82 1006.0
20260506145148 13 22 3.2 4.8 0.03 2.21 2.21 83 1006.1
20260506144212 13 45 4.8 8.0 0.03 2.21 2.21 85 1006.0
20260506143149 13 45 4.8 8.0 0.00 2.18 2.18 88 1006.2
20260506142232 12 45 0.0 1.6 0.00 2.18 2.18 88 1005.9
20260506141250 12 45 4.8 6.4 0.00 2.18 2.18 89 1006.2
20260506140232 12 45 8.0 11.3 0.00 2.18 2.18 90 1006.1
20260506135148 12 45 4.8 6.4 0.00 2.18 2.18 90 1005.9
20260506134232 12 45 8.0 9.7 0.00 2.18 2.18 91 1005.9
20260506133148 12 45 4.8 6.4 0.00 2.18 2.18 92 1005.9
20260506132313 12 45 1.6 4.8 0.00 2.18 2.18 95 1005.9
20260506131148 12 45 4.8 8.0 0.00 2.18 2.18 95 1006.0
20260506130212 11 45 0.0 3.2 0.00 2.18 2.18 95 1005.8
20260506125229 12 45 4.8 8.0 0.00 2.18 2.18 96 1006.0
20260506124212 11 45 1.6 4.8 0.00 2.18 2.18 96 1005.9
20260506123148 12 45 0.0 3.2 0.00 2.18 2.18 96 1005.8
20260506122213 12 45 0.0 1.6 0.00 2.18 2.18 96 1005.9
20260506121148 11 45 4.8 6.4 0.00 2.18 2.18 96 1005.7
20260506120212 11 45 3.2 4.8 0.00 2.18 2.18 96 1005.8
20260506115229 11 45 1.6 3.2 0.00 2.18 2.18 97 1005.5
20260506114233 11 45 0.0 1.6 0.00 2.18 2.18 97 1005.5
20260506113148 11 45 1.6 4.8 0.00 2.18 2.18 97 1005.5
20260506112333 11 45 0.0 1.6 0.00 2.18 2.18 97 1005.4
20260506111149 11 45 4.8 6.4 0.00 2.18 2.18 98 1005.3
20260506110212 11 45 4.8 6.4 0.00 2.18 2.18 98 1005.3
20260506105148 11 45 6.4 8.0 0.00 2.18 2.18 98 1005.3
20260506103820 11 45 0.0 1.6 0.00 2.18 2.18 98 1005.2
20260506103209 11 45 4.8 6.4 0.00 2.18 2.18 98 1005.0
20260506102240 11 45 0.0 1.6 0.00 2.18 2.18 98 1005.0
20260506101230 11 45 6.4 9.7 0.03 2.18 2.18 98 1004.9
20260506100340 11 45 6.4 9.7 0.03 2.18 2.18 98 1004.7
20260506095209 11 45 4.8 6.4 0.05 2.18 2.18 99 1004.7
20260506094219 11 45 9.7 9.7 0.05 2.18 2.18 99 1004.7
20260506093149 11 45 4.8 8.0 0.08 2.18 2.18 99 1004.5
20260506092240 11 45 4.8 6.4 0.10 2.18 2.18 99 1004.4
20260506091229 11 45 3.2 4.8 0.10 2.16 2.16 99 1004.4
20260506090240 11 45 4.8 4.8 0.13 2.16 2.16 99 1004.3
20260506085230 11 45 4.8 6.4 0.13 2.11 2.11 99 1004.2
20260506084219 11 45 3.2 4.8 0.20 2.11 2.11 99 1004.2
20260506083149 10 45 4.8 6.4 0.20 2.08 2.08 98 1004.3
20260506082219 10 45 1.6 3.2 0.23 2.06 2.06 98 1004.3
20260506081209 10 0 1.6 3.2 0.28 2.03 2.03 98 1004.1
20260506080240 10 0 4.8 8.0 0.36 2.01 2.01 98 1004.0
20260506073149 10 0 4.8 6.4 0.53 1.88 1.88 98 1003.7
20260506072300 10 0 4.8 8.0 0.56 1.83 1.83 98 1003.9
20260506071149 10 0 4.8 6.4 0.53 1.73 1.73 98 1003.7
20260506070219 10 0 4.8 9.7 0.46 1.63 1.63 98 1003.6
20260506062240 10 0 4.8 8.0 0.13 1.24 1.24 97 1003.6
20260506061209 10 0 4.8 6.4 0.08 1.19 1.19 97 1003.6
20260506060219 10 0 3.2 4.8 0.08 1.17 1.17 97 1003.4